User: anonymous   Login
Location: Unspecified
(0.0000°N, 0.0000°E)
Time: 11:12:20
(UTC+01:00)
Language:

Helios 1A Rocket - Orbit

View from above orbital plane
View from above orbital plane
View from above satellite
View from above satellite

Ground track
Ground track

The orbit data is extracted from the following two-line orbital elements,

1 23608U 95033D   15031.34806659  .00004116  00000-0  39399-3 0  4476
2 23608 098.2692 269.7030 0016612 231.3041 128.6692 14.93705044 58064
Epoch (UTC): 31 January 2015 08:21:12
Eccentricity: 0.0016612
inclination: 98.2692°
perigee height: 575 km
apogee height: 598 km
right ascension of ascending node: 269.7030°
argument of perigee: 231.3041°
revolutions per day: 14.93705044
mean anomaly at epoch: 128.6692°
orbit number at epoch: 5806

The dashed part of the orbit path shows where the satellite is in the earth's shadow,  

DLR